This is the latest recevied weather packets stored in our database for station/object HS5BOG-13. If no packets are shown the sender has not sent any weather packets the latest 10 day(s).
| Time | Temp. | Humidity | Pressure | Rain* | Wind** | Luminosity | Snow |
|---|---|---|---|---|---|---|---|
| 1778153486 | 32.22° C | 64% | 987.9 hPa | - | - | - | - |
| 1778152880 | 32.22° C | 65% | 987.7 hPa | - | - | - | - |
| 1778152274 | 32.22° C | 65% | 987.5 hPa | - | - | - | - |
| 1778151669 | 32.78° C | 66% | 987.3 hPa | - | - | - | - |
| 1778151063 | 32.78° C | 66% | 987.2 hPa | - | - | - | - |
| 1778150457 | 32.78° C | 66% | 987.2 hPa | - | - | - | - |
| 1778149852 | 32.78° C | 66% | 987.3 hPa | - | - | - | - |
| 1778149247 | 32.78° C | 65% | 987.5 hPa | - | - | - | - |
| 1778148641 | 32.78° C | 64% | 987.6 hPa | - | - | - | - |
| 1778148035 | 32.78° C | 64% | 987.7 hPa | - | - | - | - |
| 1778147430 | 32.78° C | 63% | 987.8 hPa | - | - | - | - |
| 1778146824 | 32.78° C | 64% | 987.5 hPa | - | - | - | - |
| 1778146218 | 32.78° C | 64% | 987.4 hPa | - | - | - | - |
| 1778145612 | 32.78° C | 64% | 987.3 hPa | - | - | - | - |
| 1778145007 | 32.22° C | 65% | 986.9 hPa | - | - | - | - |
| 1778144401 | 32.78° C | 65% | 987 hPa | - | - | - | - |
| 1778143796 | 32.22° C | 62% | 987.3 hPa | - | - | - | - |
| 1778143190 | 32.22° C | 62% | 987.3 hPa | - | - | - | - |
| 1778142585 | 32.22° C | 62% | 987.2 hPa | - | - | - | - |
| 1778141978 | 32.22° C | 63% | 987.3 hPa | - | - | - | - |
| 1778141373 | 31.67° C | 64% | 987.5 hPa | - | - | - | - |
| 1778140767 | 31.67° C | 65% | 987.8 hPa | - | - | - | - |
| 1778140162 | 31.67° C | 64% | 988 hPa | - | - | - | - |
| 1778139556 | 31.67° C | 62% | 988 hPa | - | - | - | - |
| 1778138951 | 32.22° C | 66% | 988.2 hPa | - | - | - | - |
* Rain since midnight (hover to see other rain measurements)
** Current wind speed in m/s (hover to see current wind gust speed)